Vertical_Velocity
3 3 3 2 2 2 2 2 3 2 -1 -3 -4 -4 -4 -2 -4 -2 2 5 2 1 2 2 -1 -1 1 4 4 3 2 4 8 8 5 2 1 2 3 3 2 1 1 -0 1 1 1 0 1 2 2 3 3 3 4 5 3 2 2 2 0 -1 -2 -2 -3 -2 -2 -2 -3
1 1 1 1 0 0 1 1 3 3 3 1 0 -1 -2 -1 -3 -2 0 3 1 1 2 1 -1 -1 0 1 3 2 1 0 2 5 5 4 2 2 3 2 2 1 0 -1 -1 -1 0 2 2 1 1 2 2 2 4 8 7 4 1 1 -1 -2 -2 -3 -3 -1 -0 -2 -2
-1 -1 -0 -1 -1 -1 -1 -1 0 2 3 2 3 2 1 0 -0 -0 -0 1 2 2 2 -0 -0 -0 -0 -0 3 4 4 3 4 6 7 5 2 2 2 2 2 1 -0 -2 -3 -3 -1 3 5 4 2 1 -0 -1 -1 5 7 5 2 1 2 2 1 -0 2 2 1 -2 -2
-1 -1 -2 -2 -2 -2 -3 -3 -2 -1 1 2 2 3 3 2 2 1 0 1 3 4 3 2 0 -0 -0 0 3 6 8 9 8 10 12 10 4 1 1 3 2 1 -0 -2 -3 -3 -1 4 10 11 8 2 -0 -3 -3 -1 3 3 2 1 1 -0 -1 -0 2 2 -0 -3 -3
-2 -2 -2 -2 -3 -3 -3 -3 -4 -3 -2 0 0 1 2 3 2 2 2 3 3 4 4 4 1 -1 -0 2 2 4 6 8 7 7 7 4 -0 -1 1 3 3 3 2 -0 -2 -2 -1 2 9 13 12 6 2 1 1 2 5 5 2 -2 -4 -5 -4 -1 -0 -0 -1 -2 -0
-3 -3 -3 -3 -4 -4 -4 -5 -5 -5 -4 -3 -2 -1 0 2 2 3 3 3 3 4 5 5 2 0 0 2 2 2 3 4 4 2 -1 -5 -5 -2 1 3 4 4 3 0 -1 -2 -2 -2 2 6 8 7 4 4 8 14 15 13 8 2 -3 -3 -1 -0 -1 -0 0 1 3
-5 -6 -6 -6 -6 -6 -6 -6 -6 -6 -6 -5 -4 -3 -2 0 1 2 3 4 4 5 6 6 3 2 1 3 3 3 2 2 1 -1 -4 -7 -5 -1 2 3 4 3 1 -1 -2 -2 -2 -2 -2 1 4 8 5 5 9 18 20 19 16 13 8 6 5 -0 -1 0 1 1 3
-6 -7 -7 -7 -7 -7 -7 -7 -7 -7 -7 -6 -6 -5 -4 -2 -1 1 3 5 5 5 6 6 5 3 3 5 6 6 4 2 -2 -4 -6 -7 -2 1 4 5 4 2 0 -2 -3 -3 -2 -1 -2 -0 3 9 9 7 8 13 17 18 18 18 16 13 9 2 2 3 3 3 4
-6 -6 -6 -6 -6 -6 -7 -6 -7 -7 -7 -7 -6 -6 -5 -4 -3 -1 0 2 3 4 6 7 6 6 5 5 8 9 9 6 -0 -5 -8 -6 -1 2 4 4 3 2 0 -1 -2 -2 -3 -3 -4 -3 1 7 9 10 10 10 11 12 13 13 12 10 8 6 7 9 10 11 11
-5 -5 -5 -5 -5 -5 -6 -6 -6 -6 -6 -6 -6 -6 -5 -5 -5 -4 -3 -1 1 3 4 5 7 7 6 5 7 9 10 8 3 -3 -6 -5 -1 2 3 3 2 1 0 0 0 -1 -3 -5 -7 -6 -2 3 7 8 9 8 7 7 7 7 7 7 7 9 13 16 17 18 15
-5 -5 -5 -5 -5 -5 -5 -5 -5 -5 -5 -5 -5 -4 -4 -4 -5 -5 -5 -4 -2 -0 2 3 5 5 6 5 6 7 8 8 4 0 -3 -2 0 2 2 0 0 -0 -1 -0 1 0 -2 -6 -6 -4 -0 2 3 4 5 5 6 7 7 8 9 11 12 13 15 15 14 12 10
-5 -5 -5 -5 -5 -5 -5 -4 -4 -3 -3 -3 -3 -3 -3 -3 -3 -4 -5 -5 -4 -3 -1 1 2 4 5 5 5 5 5 5 4 2 1 1 2 2 1 -1 -3 -3 -3 -2 -0 0 -0 -2 -1 1 3 2 2 3 4 4 6 7 8 10 13 15 17 15 13 10 7 4 3
-6 -6 -6 -6 -5 -5 -4 -3 -3 -2 -2 -2 -2 -2 -2 -2 -2 -3 -4 -4 -4 -3 -2 -1 1 3 4 5 5 5 5 4 4 4 4 4 4 3 1 -3 -5 -5 -4 -3 -1 1 1 2 4 4 4 3 4 5 6 6 7 7 7 9 13 16 17 15 11 6 3 2 2
-6 -6 -6 -6 -5 -4 -3 -2 -2 -1 -1 -1 -1 -1 -1 -1 -2 -2 -2 -3 -3 -2 -2 -1 0 2 3 4 5 6 6 5 4 5 5 5 5 3 0 -4 -5 -5 -4 -2 -0 1 2 3 5 4 4 2 4 7 8 8 7 6 6 8 12 15 16 14 10 6 5 4 5
-6 -6 -5 -5 -4 -3 -2 -2 -2 -2 -1 -1 -1 -1 -0 -1 -1 -2 -2 -2 -2 -1 -1 0 1 1 2 3 4 5 6 6 5 5 5 5 4 2 -1 -4 -4 -3 -2 -2 -1 0 1 3 4 4 3 2 6 9 10 8 6 5 6 8 11 13 13 13 10 8 6 6 6
-5 -5 -5 -4 -3 -3 -3 -3 -3 -3 -2 -2 -1 -1 -0 0 -0 -1 -1 -1 -1 -1 -0 0 1 1 2 2 3 4 5 6 5 5 5 6 5 3 -0 -3 -2 -1 -1 -1 -1 -0 1 2 3 3 3 4 8 10 10 7 5 5 6 8 10 11 12 13 10 8 6 5 5
-4 -4 -4 -3 -3 -3 -3 -3 -4 -3 -3 -2 -2 -1 -0 0 0 -0 -0 -1 -1 -0 0 0 1 2 2 2 3 4 5 5 5 5 6 7 6 3 -1 -2 -2 -1 -1 -0 -1 -0 0 2 2 3 4 7 10 11 9 7 6 6 7 9 10 12 13 12 9 6 4 4 3
-3 -3 -3 -3 -2 -2 -2 -3 -3 -3 -3 -2 -2 -2 -1 -0 0 0 -0 -0 -0 0 0 1 1 2 2 2 3 3 4 5 4 4 4 5 3 1 -1 -2 -2 -1 -0 1 0 -0 -0 0 2 4 6 10 11 11 10 9 8 8 9 10 12 13 13 11 7 4 3 2 2
-3 -3 -3 -2 -2 -2 -2 -2 -2 -1 -1 -1 -1 -2 -1 -1 0 0 0 -0 -0 0 1 1 1 2 2 2 3 3 4 4 3 2 2 2 1 0 -1 -2 -2 -1 1 2 1 1 0 1 3 6 9 12 11 10 10 11 10 9 10 11 13 14 12 8 4 2 2 1 1
-4 -3 -3 -2 -2 -1 -1 -1 -1 -0 0 0 -1 -1 -1 -1 -0 0 0 0 0 1 1 1 2 2 2 3 4 4 3 2 1 0 0 1 1 1 0 -1 -1 0 2 3 4 5 5 6 7 9 11 11 10 10 11 12 12 11 12 13 15 13 9 4 2 1 0 0 1
-4 -3 -3 -2 -1 -1 -1 -1 -1 -0 0 1 0 -1 -1 -1 -0 0 1 1 1 2 2 2 2 2 2 3 3 2 1 0 -0 -0 -0 0 1 1 0 -0 1 2 5 8 9 9 10 10 10 10 10 10 10 11 12 13 13 13 13 14 13 9 5 1 -0 -0 -0 0 1
-3 -3 -3 -2 -1 -1 -1 -2 -1 -0 0 1 1 -0 -1 -1 -0 0 1 1 2 2 2 2 3 3 3 3 3 2 1 1 1 1 1 1 1 0 0 1 3 6 8 10 10 10 9 9 9 9 9 9 10 12 13 14 14 13 12 10 7 4 1 -1 -1 -1 -0 0 1
-3 -3 -3 -2 -1 -1 -2 -2 -2 -1 0 1 1 0 0 -0 0 1 1 1 2 2 2 2 3 3 3 3 3 3 4 4 3 3 2 2 2 2 3 5 7 8 9 9 8 7 6 6 6 6 7 9 11 13 14 14 13 11 8 5 2 0 -1 -1 -1 -1 0 1 2
-3 -3 -3 -2 -1 -1 -2 -2 -2 -1 0 1 1 1 1 1 1 1 1 1 1 1 1 1 2 2 2 2 2 3 4 5 4 4 3 3 4 5 7 8 8 7 6 5 5 5 4 4 4 5 6 9 12 14 14 13 10 7 3 1 -0 -1 -2 -2 -1 -0 1 1 1
-2 -3 -3 -3 -2 -1 -2 -2 -2 -1 0 1 1 1 1 1 1 1 1 1 1 1 1 1 1 1 1 2 2 3 3 3 4 5 5 5 6 7 8 8 6 4 3 2 4 4 4 4 4 5 7 10 13 14 14 11 7 3 0 -1 -2 -2 -2 -2 -1 -0 0 1 0
-2 -3 -3 -3 -2 -2 -2 -2 -2 -1 0 1 0 0 0 1 1 0 -0 -0 0 0 1 1 1 1 1 2 3 4 6 10 13 13 12 10 9 8 7 5 3 1 2 3 5 5 6 5 5 6 9 12 14 14 12 8 4 1 -1 -2 -2 -2 -2 -1 -1 -0 -0 -0 -1
-1 -2 -3 -3 -2 -1 -1 -2 -2 -1 -0 1 0 0 -0 0 0 -0 -1 -1 -1 -0 1 1 2 1 1 2 1 2 5 11 14 16 16 15 13 11 8 5 3 3 4 6 7 7 7 6 7 9 11 13 14 12 9 4 1 -0 -1 -2 -3 -3 -2 -1 -1 -0 -0 -0 -1
-1 -1 -2 -3 -2 -1 -1 -2 -2 -2 -1 1 1 0 -0 -0 1 0 -0 -1 -2 -1 -0 2 3 3 2 2 1 0 1 4 7 10 12 13 13 12 11 9 8 7 8 9 9 9 8 8 9 11 12 14 12 8 4 1 -0 -1 -2 -3 -3 -2 -2 -1 -0 -0 -0 -0 -0
-1 -1 -1 -2 -2 -1 -1 -1 -2 -2 -1 0 2 1 0 -0 0 1 1 0 -0 -0 0 1 3 4 4 3 3 2 2 3 5 7 9 10 10 10 10 10 10 10 10 10 10 10 10 10 10 11 10 9 7 4 2 0 -1 -2 -2 -3 -2 -1 -1 -0 0 0 -0 -1 -1
-0 -1 -1 -1 -1 -1 -0 -0 -1 -1 -1 -0 2 2 2 -0 -0 0 2 2 2 2 2 2 2 3 3 3 4 4 5 6 8 9 9 9 8 8 9 9 10 10 10 10 11 10 10 10 8 7 6 5 3 2 1 0 -0 -1 -1 -1 -1 -0 0 0 0 -0 -1 -1 -1
-0 -0 -1 -1 -1 -1 -1 -0 -1 -1 -1 -1 1 2 3 2 0 -0 0 2 2 3 2 2 1 1 1 2 2 4 5 7 8 9 9 8 7 6 7 8 8 9 9 9 9 9 8 7 6 5 4 3 3 2 2 1 1 1 1 0 0 0 0 0 -0 -1 -1 -1 -0
-1 -1 -1 -1 -1 -1 -1 -1 -1 -1 -1 -1 0 2 3 3 2 1 0 0 1 2 2 2 1 1 1 1 0 1 2 4 6 6 6 5 4 4 4 5 6 7 7 7 6 6 5 5 4 4 3 3 3 2 2 2 2 2 1 1 1 0 -0 -1 -1 -1 -1 -0 0
-1 -1 -1 -1 -1 -1 -1 -1 -1 -1 -1 -1 -0 1 2 3 3 2 1 0 0 1 2 2 2 1 0 0 0 -0 -0 0 1 2 3 4 4 3 4 4 4 5 5 5 4 4 4 3 4 3 3 2 2 2 2 3 2 2 1 1 0 0 -0 -1 -1 -1 -1 0 1
-1 -1 -1 -0 -1 -1 -1 -1 -1 -1 -1 -1 -0 0 1 2 2 2 2 1 0 0 1 2 2 2 1 0 1 1 0 -0 -1 -1 0 1 3 3 4 5 5 5 5 6 6 5 4 4 4 4 3 3 2 2 2 2 2 2 1 1 0 0 -0 -1 -1 -1 -0 1 1
-1 -1 -1 -0 -0 -1 -1 -1 -2 -2 -1 -1 -1 -0 0 1 1 2 2 2 1 1 1 0 1 1 1 1 1 1 1 1 0 -0 -1 -1 -0 1 2 3 4 5 6 7 6 6 5 4 4 4 4 3 3 2 2 2 2 1 1 1 1 0 -0 -1 -1 -1 -0 1 1
-1 -1 -1 -1 -0 -0 -0 -1 -1 -2 -2 -1 -1 -0 0 0 1 1 1 1 2 2 2 1 0 0 1 1 1 1 1 1 1 0 -0 -1 -1 -0 0 1 2 3 4 4 4 3 2 2 3 3 3 2 2 2 2 1 1 1 1 1 1 0 -1 -2 -2 -1 -0 1 1
-1 -1 -1 -1 -0 -0 -0 -0 -1 -2 -2 -2 -1 -1 0 1 0 -0 -0 0 1 2 2 3 2 1 0 -0 0 0 1 1 1 1 1 1 1 1 0 1 1 1 1 0 -0 -1 -1 -1 1 2 2 0 -0 -0 -0 0 0 1 1 2 1 -0 -2 -3 -3 -2 -1 -0 0
-1 -0 -0 -0 -0 -0 0 0 0 -1 -2 -2 -2 -1 -0 1 1 0 -0 -1 -1 -0 0 2 3 3 2 1 0 0 0 1 1 1 1 1 1 1 1 1 0 -0 -1 -1 -2 -3 -2 -1 1 1 1 -0 -1 -2 -2 -2 -1 -0 1 1 1 0 -1 -3 -4 -3 -2 -1 -1
-0 -0 -0 -0 -0 -0 0 0 1 0 -1 -2 -2 -2 -1 -0 0 0 0 -1 -1 -2 -1 -0 1 2 3 3 2 2 2 1 1 1 0 -0 0 0 1 1 0 -1 -2 -2 -3 -3 -2 -1 1 1 1 -0 -2 -3 -3 -2 -1 -1 0 2 2 2 0 -2 -4 -4 -3 -2 -2
0 0 0 0 0 0 0 0 0 0 0 -0 -1 -2 -1 -1 -0 -0 0 0 -1 -1 -2 -1 -1 0 1 2 2 3 3 3 3 2 1 0 0 1 2 2 0 -1 -2 -2 -3 -3 -2 0 1 2 1 -0 -2 -2 -2 -1 -1 -0 1 2 3 2 1 -2 -3 -4 -3 -2 -1
0 0 0 0 0 0 0 0 0 0 1 1 -0 -1 -1 -1 -1 -1 -0 -0 -0 -1 -1 -1 -1 -1 -0 0 1 1 2 3 3 3 3 2 2 2 3 3 2 0 -1 -2 -2 -2 -1 1 2 2 2 0 -1 -1 -1 -0 0 0 0 1 1 1 0 -2 -3 -3 -2 -1 -0
Height
5544 5542 5540 5538 5537 5535 5534 5533 5532 5531 5530 5529 5529 5529 5528 5529 5529 5529 5530 5530 5531 5531 5531 5531 5532 5534 5535 5537 5538 5539 5540 5542 5545 5546 5546 5546 5546 5547 5547 5547 5546 5547 5548 5549 5552 5554 5556 5558 5560 5562 5564 5565 5567 5569 5571 5572 5573 5574 5575 5576 5577 5578 5579 5580 5582 5583 5584 5586 5588
5539 5536 5534 5532 5530 5529 5528 5527 5525 5524 5524 5523 5522 5521 5521 5521 5521 5522 5522 5523 5524 5524 5524 5525 5526 5528 5529 5531 5532 5534 5535 5536 5538 5540 5541 5541 5541 5542 5542 5541 5541 5541 5542 5544 5546 5549 5551 5554 5555 5557 5559 5560 5562 5564 5566 5567 5568 5569 5571 5571 5572 5573 5575 5577 5578 5579 5581 5583 5584
5532 5530 5528 5525 5523 5521 5520 5519 5518 5517 5516 5515 5514 5514 5513 5513 5513 5514 5514 5515 5516 5517 5518 5519 5520 5522 5524 5525 5527 5529 5530 5532 5533 5534 5536 5537 5536 5537 5537 5536 5536 5537 5537 5539 5541 5543 5546 5549 5551 5553 5554 5555 5557 5559 5560 5562 5564 5565 5567 5567 5568 5570 5572 5573 5574 5575 5577 5579 5580
5526 5523 5520 5518 5516 5514 5511 5510 5509 5508 5507 5506 5505 5505 5504 5504 5504 5505 5506 5507 5509 5510 5511 5512 5513 5515 5517 5519 5521 5523 5525 5528 5529 5530 5530 5531 5531 5532 5532 5532 5532 5532 5533 5535 5537 5539 5541 5544 5547 5549 5550 5551 5552 5554 5555 5557 5559 5561 5563 5563 5565 5567 5569 5569 5570 5572 5573 5574 5575
5520 5517 5514 5511 5509 5506 5504 5502 5500 5499 5497 5497 5496 5496 5495 5495 5495 5496 5497 5498 5500 5502 5503 5504 5506 5508 5510 5513 5515 5517 5519 5521 5523 5524 5524 5523 5524 5526 5527 5527 5528 5528 5529 5531 5533 5534 5536 5538 5541 5544 5546 5547 5549 5550 5552 5553 5555 5557 5558 5559 5561 5563 5564 5565 5566 5567 5568 5569 5570
5514 5511 5508 5505 5503 5500 5497 5495 5493 5491 5489 5488 5488 5487 5486 5486 5486 5487 5488 5489 5491 5493 5495 5497 5499 5500 5504 5507 5509 5510 5512 5514 5515 5516 5517 5518 5519 5520 5522 5522 5523 5524 5525 5527 5528 5530 5531 5533 5535 5538 5541 5543 5545 5546 5548 5549 5551 5552 5553 5554 5555 5557 5558 5559 5561 5562 5563 5564 5564
5509 5506 5504 5501 5498 5495 5492 5490 5488 5485 5483 5482 5480 5479 5479 5478 5478 5479 5480 5481 5483 5485 5487 5489 5491 5493 5497 5501 5503 5504 5506 5507 5509 5510 5511 5512 5514 5515 5517 5518 5519 5519 5520 5522 5523 5525 5527 5529 5531 5533 5535 5538 5540 5542 5543 5545 5546 5547 5548 5549 5550 5551 5553 5555 5556 5557 5558 5559 5560
5505 5502 5499 5497 5494 5491 5489 5486 5484 5481 5479 5477 5475 5474 5473 5472 5472 5472 5472 5473 5475 5477 5479 5481 5484 5486 5489 5493 5497 5500 5501 5502 5503 5504 5505 5507 5509 5511 5512 5513 5514 5515 5516 5517 5519 5521 5523 5525 5527 5528 5530 5533 5535 5537 5539 5540 5542 5543 5544 5545 5546 5548 5549 5551 5552 5553 5554 5554 5555
5502 5499 5496 5494 5491 5488 5486 5483 5481 5479 5476 5474 5472 5470 5469 5467 5466 5466 5466 5467 5468 5470 5472 5474 5477 5479 5482 5486 5490 5494 5497 5498 5498 5498 5499 5502 5504 5506 5507 5508 5509 5510 5511 5513 5514 5516 5519 5521 5522 5524 5525 5527 5529 5531 5534 5536 5538 5539 5540 5541 5543 5544 5546 5547 5548 5548 5549 5549 5550
5499 5496 5494 5491 5488 5486 5483 5481 5479 5476 5474 5471 5469 5467 5465 5464 5463 5462 5461 5462 5463 5464 5466 5468 5470 5473 5476 5479 5482 5487 5490 5493 5494 5494 5494 5497 5499 5500 5502 5503 5504 5505 5506 5508 5510 5512 5514 5516 5518 5519 5521 5523 5525 5527 5529 5531 5533 5535 5536 5537 5539 5540 5541 5542 5542 5543 5543 5544 5545
5495 5493 5490 5488 5486 5484 5481 5479 5476 5474 5472 5469 5467 5465 5463 5461 5459 5458 5458 5458 5458 5459 5461 5463 5465 5468 5470 5473 5476 5479 5482 5485 5488 5489 5490 5492 5494 5495 5497 5498 5499 5500 5502 5503 5505 5507 5509 5512 5514 5517 5519 5520 5521 5523 5524 5527 5529 5530 5531 5533 5534 5535 5536 5536 5537 5538 5539 5540 5541
5493 5490 5488 5485 5483 5481 5479 5477 5474 5472 5469 5467 5465 5463 5461 5459 5457 5455 5454 5454 5455 5455 5457 5459 5461 5463 5465 5468 5470 5473 5475 5478 5481 5484 5486 5487 5489 5491 5492 5493 5494 5495 5497 5498 5500 5503 5505 5507 5511 5514 5516 5517 5518 5519 5520 5522 5524 5525 5526 5527 5529 5530 5531 5531 5533 5534 5535 5535 5536
5490 5488 5485 5483 5481 5479 5477 5474 5472 5470 5467 5465 5462 5460 5458 5456 5454 5453 5452 5451 5452 5452 5453 5455 5456 5459 5461 5463 5466 5469 5471 5473 5476 5479 5481 5483 5484 5486 5488 5488 5489 5490 5492 5494 5496 5498 5500 5504 5507 5510 5512 5513 5514 5515 5516 5517 5519 5519 5520 5522 5523 5525 5527 5528 5529 5530 5531 5531 5532
5488 5485 5483 5481 5479 5477 5474 5472 5470 5467 5465 5462 5460 5457 5455 5454 5452 5450 5449 5449 5449 5449 5450 5451 5453 5455 5457 5459 5462 5464 5467 5469 5472 5474 5476 5478 5480 5482 5483 5484 5485 5486 5488 5489 5492 5494 5496 5499 5503 5505 5507 5508 5509 5511 5512 5513 5514 5514 5515 5517 5519 5521 5523 5524 5525 5526 5526 5527 5528
5485 5483 5481 5479 5477 5475 5472 5470 5467 5465 5462 5459 5457 5454 5452 5451 5449 5448 5447 5446 5446 5447 5447 5449 5450 5451 5454 5456 5458 5460 5463 5465 5468 5470 5472 5474 5476 5477 5478 5480 5481 5483 5484 5486 5488 5490 5492 5496 5499 5501 5502 5504 5505 5507 5508 5509 5509 5509 5511 5513 5515 5517 5519 5520 5521 5522 5522 5523 5524
5484 5481 5479 5477 5475 5473 5470 5468 5465 5462 5459 5457 5454 5452 5449 5448 5447 5445 5445 5444 5444 5444 5445 5446 5447 5449 5450 5452 5454 5457 5459 5461 5464 5466 5468 5470 5472 5474 5474 5476 5477 5479 5480 5482 5484 5486 5489 5492 5494 5497 5498 5500 5502 5504 5504 5504 5505 5506 5507 5509 5511 5513 5515 5516 5517 5517 5518 5519 5520
5482 5480 5477 5475 5473 5470 5468 5465 5463 5460 5457 5454 5452 5449 5447 5445 5444 5443 5443 5442 5442 5442 5443 5444 5445 5446 5448 5449 5452 5454 5456 5458 5460 5462 5464 5467 5469 5470 5471 5472 5473 5475 5476 5478 5480 5483 5485 5488 5490 5492 5494 5497 5499 5500 5500 5501 5502 5503 5504 5507 5508 5510 5511 5512 5512 5513 5514 5515 5516
5480 5478 5476 5473 5471 5469 5466 5463 5461 5458 5455 5452 5449 5447 5445 5443 5442 5441 5440 5440 5440 5440 5441 5442 5443 5444 5445 5447 5449 5451 5453 5454 5456 5458 5460 5462 5464 5465 5467 5468 5469 5471 5473 5475 5477 5480 5482 5484 5487 5489 5491 5493 5495 5496 5497 5498 5499 5500 5502 5504 5505 5506 5507 5508 5508 5509 5509 5511 5513
5478 5476 5474 5471 5469 5467 5464 5462 5459 5456 5454 5451 5448 5445 5443 5441 5440 5439 5439 5439 5439 5439 5439 5440 5441 5442 5444 5445 5447 5449 5450 5452 5454 5455 5457 5459 5461 5463 5464 5465 5467 5469 5471 5473 5475 5477 5479 5482 5484 5486 5488 5490 5491 5492 5493 5495 5496 5497 5499 5500 5501 5502 5503 5503 5504 5504 5506 5507 5509
5476 5474 5472 5470 5468 5465 5463 5460 5458 5455 5452 5449 5447 5444 5442 5440 5439 5438 5438 5437 5437 5438 5438 5439 5439 5441 5442 5444 5445 5447 5449 5450 5452 5454 5455 5457 5459 5460 5462 5463 5465 5467 5469 5471 5473 5475 5477 5479 5481 5483 5484 5486 5487 5489 5490 5492 5493 5494 5495 5496 5497 5498 5499 5499 5499 5501 5502 5504 5505
5474 5472 5470 5468 5466 5464 5461 5459 5456 5454 5451 5448 5446 5443 5441 5439 5438 5437 5437 5436 5436 5437 5437 5438 5438 5439 5440 5442 5444 5445 5447 5449 5450 5452 5454 5455 5456 5458 5459 5460 5462 5464 5467 5469 5471 5473 5475 5476 5478 5479 5481 5482 5484 5485 5487 5488 5489 5490 5491 5492 5493 5494 5494 5495 5496 5497 5499 5500 5501
5473 5470 5468 5466 5464 5462 5460 5457 5455 5452 5450 5448 5445 5443 5440 5439 5438 5437 5436 5436 5436 5436 5436 5436 5437 5438 5439 5440 5442 5443 5445 5446 5448 5449 5451 5452 5453 5455 5456 5458 5460 5462 5464 5466 5468 5469 5471 5473 5474 5476 5477 5479 5480 5482 5483 5484 5486 5487 5487 5488 5489 5489 5490 5491 5493 5494 5495 5496 5498
5471 5469 5467 5465 5463 5461 5459 5456 5454 5451 5449 5447 5444 5442 5440 5439 5437 5436 5436 5435 5435 5435 5435 5435 5436 5437 5438 5439 5440 5441 5443 5444 5446 5447 5449 5450 5451 5453 5454 5456 5458 5460 5461 5462 5464 5465 5467 5468 5470 5472 5474 5475 5477 5478 5479 5481 5482 5483 5483 5484 5485 5486 5487 5488 5489 5490 5491 5493 5494
5469 5467 5465 5463 5461 5459 5457 5455 5453 5451 5449 5446 5444 5442 5440 5439 5437 5436 5436 5435 5434 5434 5434 5434 5435 5436 5437 5438 5439 5440 5441 5443 5444 5446 5447 5449 5450 5451 5453 5454 5455 5456 5457 5458 5459 5461 5463 5464 5466 5468 5470 5471 5473 5474 5475 5477 5478 5479 5479 5480 5481 5482 5484 5484 5486 5487 5488 5489 5490
5468 5466 5464 5462 5460 5458 5456 5454 5452 5450 5448 5446 5444 5442 5440 5438 5437 5436 5436 5435 5434 5434 5434 5434 5434 5434 5435 5436 5437 5439 5440 5442 5444 5445 5446 5447 5448 5449 5450 5451 5452 5452 5453 5454 5456 5458 5459 5461 5463 5464 5466 5468 5469 5470 5472 5473 5474 5474 5475 5476 5478 5479 5480 5481 5482 5483 5484 5485 5486
5466 5464 5462 5460 5459 5457 5455 5453 5451 5449 5447 5445 5443 5441 5439 5438 5437 5436 5435 5435 5434 5434 5433 5433 5433 5434 5434 5435 5436 5438 5439 5441 5443 5444 5445 5445 5446 5447 5447 5447 5448 5449 5450 5452 5453 5455 5457 5458 5460 5461 5463 5464 5466 5467 5468 5469 5469 5470 5472 5473 5474 5475 5477 5478 5479 5480 5481 5482 5483
5464 5462 5461 5459 5457 5456 5454 5452 5450 5449 5447 5445 5443 5441 5439 5438 5436 5435 5434 5434 5434 5434 5433 5433 5433 5433 5434 5435 5436 5437 5438 5439 5440 5441 5442 5443 5444 5444 5444 5444 5445 5447 5448 5449 5451 5453 5454 5456 5457 5458 5459 5461 5462 5463 5464 5464 5465 5467 5468 5469 5471 5472 5473 5474 5476 5477 5478 5479 5480
5462 5461 5459 5457 5456 5454 5453 5451 5449 5448 5446 5444 5443 5441 5439 5437 5436 5435 5434 5433 5433 5433 5432 5432 5432 5433 5433 5434 5434 5435 5436 5437 5438 5439 5439 5440 5441 5441 5442 5443 5444 5445 5447 5448 5449 5450 5452 5453 5454 5455 5456 5457 5458 5459 5459 5460 5462 5463 5465 5466 5468 5469 5470 5471 5472 5474 5474 5476 5477
5460 5459 5457 5456 5454 5453 5451 5450 5448 5447 5445 5444 5442 5440 5439 5437 5436 5434 5433 5432 5432 5432 5431 5431 5432 5432 5432 5433 5434 5434 5435 5435 5436 5437 5437 5438 5438 5439 5439 5440 5441 5443 5444 5445 5447 5448 5449 5450 5451 5452 5453 5454 5454 5455 5456 5457 5459 5460 5462 5463 5464 5466 5467 5468 5469 5470 5471 5473 5474
5458 5457 5455 5454 5453 5451 5450 5448 5447 5446 5444 5443 5442 5440 5439 5437 5435 5434 5433 5432 5431 5431 5431 5431 5431 5431 5431 5432 5432 5433 5434 5434 5435 5435 5435 5435 5435 5436 5437 5438 5439 5440 5441 5443 5444 5445 5446 5447 5448 5449 5449 5450 5451 5452 5453 5455 5456 5458 5459 5460 5461 5462 5464 5464 5466 5467 5468 5469 5470
5456 5455 5454 5452 5451 5449 5448 5447 5445 5444 5443 5442 5441 5439 5438 5437 5435 5434 5432 5431 5430 5430 5430 5429 5429 5430 5430 5430 5431 5431 5432 5432 5433 5433 5433 5433 5433 5434 5434 5435 5436 5438 5439 5440 5441 5442 5443 5444 5445 5446 5447 5448 5449 5449 5451 5452 5454 5455 5456 5457 5458 5459 5460 5461 5462 5464 5465 5466 5467
5454 5453 5452 5450 5449 5448 5446 5445 5444 5443 5441 5440 5439 5439 5437 5436 5435 5434 5432 5431 5430 5429 5429 5429 5429 5429 5429 5429 5429 5429 5430 5430 5430 5430 5430 5431 5431 5432 5432 5433 5434 5435 5436 5438 5438 5439 5440 5441 5442 5443 5444 5445 5446 5447 5449 5449 5451 5452 5453 5454 5455 5456 5457 5458 5459 5460 5461 5463 5463
5452 5451 5449 5448 5447 5446 5444 5443 5442 5441 5440 5439 5438 5437 5436 5435 5434 5433 5432 5430 5429 5428 5428 5428 5428 5428 5428 5428 5428 5428 5428 5428 5428 5428 5429 5429 5429 5430 5431 5432 5433 5434 5434 5435 5436 5437 5438 5439 5440 5441 5442 5443 5444 5444 5445 5447 5448 5449 5450 5451 5452 5453 5454 5454 5456 5457 5458 5459 5459
5450 5449 5447 5446 5445 5444 5442 5441 5440 5439 5438 5437 5436 5435 5435 5434 5433 5432 5431 5430 5429 5428 5427 5427 5427 5426 5426 5427 5426 5426 5426 5426 5426 5426 5427 5427 5428 5429 5429 5430 5431 5432 5433 5433 5434 5435 5436 5437 5438 5438 5439 5440 5441 5441 5443 5444 5444 5445 5446 5447 5449 5449 5450 5451 5452 5453 5454 5455 5456
5448 5447 5445 5444 5443 5441 5440 5439 5438 5437 5436 5435 5434 5434 5433 5432 5431 5431 5430 5429 5429 5427 5426 5426 5425 5425 5425 5425 5425 5425 5425 5425 5425 5425 5425 5425 5426 5426 5427 5428 5428 5429 5430 5431 5431 5432 5433 5434 5435 5436 5436 5437 5438 5439 5439 5440 5441 5442 5443 5444 5445 5446 5447 5447 5448 5449 5450 5451 5452
5445 5444 5443 5442 5440 5439 5438 5437 5436 5435 5434 5433 5432 5432 5431 5430 5429 5429 5428 5428 5427 5427 5426 5425 5424 5424 5424 5424 5423 5423 5423 5423 5423 5423 5424 5424 5424 5424 5425 5425 5426 5426 5427 5427 5428 5429 5429 5431 5432 5433 5433 5434 5434 5435 5436 5437 5438 5439 5440 5441 5442 5443 5443 5444 5444 5445 5446 5447 5448
5443 5442 5440 5439 5438 5437 5436 5434 5434 5433 5432 5431 5430 5429 5429 5428 5427 5427 5426 5425 5425 5425 5425 5424 5423 5423 5422 5422 5421 5421 5421 5421 5421 5421 5422 5422 5422 5423 5423 5423 5423 5424 5424 5424 5425 5425 5426 5428 5429 5429 5430 5430 5431 5432 5433 5434 5435 5436 5437 5438 5439 5439 5439 5440 5441 5442 5443 5444 5444
5440 5439 5438 5437 5435 5434 5433 5432 5431 5430 5429 5428 5428 5427 5426 5425 5425 5424 5424 5423 5423 5423 5423 5423 5422 5421 5421 5420 5420 5419 5419 5419 5419 5419 5419 5419 5420 5420 5420 5421 5421 5421 5421 5422 5422 5423 5424 5425 5426 5427 5427 5428 5428 5429 5430 5431 5432 5433 5434 5435 5435 5436 5436 5436 5437 5438 5439 5440 5441
5437 5436 5435 5434 5433 5432 5431 5430 5429 5428 5427 5426 5425 5424 5424 5423 5422 5422 5421 5421 5420 5420 5420 5420 5420 5419 5419 5419 5418 5418 5417 5417 5417 5417 5417 5417 5417 5418 5418 5418 5419 5419 5419 5419 5420 5421 5422 5423 5424 5424 5424 5425 5425 5426 5427 5428 5429 5430 5431 5432 5432 5433 5433 5433 5434 5434 5435 5436 5437
5434 5433 5432 5431 5430 5429 5428 5427 5426 5425 5424 5423 5422 5421 5421 5420 5419 5419 5418 5418 5418 5417 5417 5417 5417 5417 5417 5416 5416 5416 5416 5415 5415 5415 5414 5415 5415 5415 5415 5416 5416 5416 5416 5417 5418 5419 5419 5420 5421 5421 5422 5422 5423 5423 5424 5425 5426 5427 5428 5429 5429 5429 5430 5430 5430 5431 5432 5433 5434
5431 5429 5429 5428 5427 5426 5425 5424 5423 5422 5421 5420 5419 5419 5418 5417 5417 5416 5416 5415 5414 5414 5414 5414 5414 5414 5414 5414 5414 5414 5413 5413 5413 5413 5412 5412 5413 5413 5413 5413 5413 5414 5414 5414 5416 5416 5417 5417 5418 5419 5419 5419 5420 5420 5421 5422 5423 5424 5424 5425 5426 5426 5427 5427 5427 5428 5429 5429 5430